Location: Pescara
(42.4765°N, 14.1734°E)
Time: 02:54:44
(UTC+02:00)

ISS - Visible Passes

Search period start: 10 September 2024 00:00
Search period end: 20 September 2024 00:00
Orbit: 415 x 425 km, 51.6° (Epoch: 09 September)

Date Brightness Start Highest point End Pass type
(mag) Time Alt. Az. Time Alt. Az. Time Alt. Az.
10 Sep -2.9 20:36:17 10° SSW 20:39:13 29° SE 20:39:13 29° SE visible
11 Sep -2.1 19:49:46 10° S 19:52:06 18° SE 19:54:26 10° E visible
11 Sep -2.7 21:25:17 10° WSW 21:27:49 44° W 21:27:49 44° W visible
12 Sep -3.9 20:37:56 10° SW 20:41:16 85° SE 20:43:02 26° ENE visible
12 Sep -0.4 22:15:38 10° WNW 22:16:02 12° WNW 22:16:02 12° WNW visible
13 Sep -3.5 19:50:43 10° SW 19:53:58 50° SE 19:57:15 10° ENE visible
13 Sep -2.0 21:27:55 10° W 21:30:55 29° NNW 21:31:00 29° NNW visible
14 Sep -2.5 20:40:14 10° W 20:43:26 40° NNW 20:45:46 16° NE visible
14 Sep -0.2 22:18:31 10° NW 22:18:45 11° NW 22:18:45 11° NW visible
15 Sep -3.2 19:52:39 10° WSW 19:55:58 59° NNW 19:59:18 10° NE visible
15 Sep -1.4 21:30:45 10° WNW 21:33:18 20° N 21:33:21 20° N visible
16 Sep -1.6 20:42:55 10° WNW 20:45:41 23° NNW 20:47:50 13° NNE visible
17 Sep -2.0 19:55:05 10° W 19:58:05 29° NNW 20:01:05 10° NE visible
17 Sep -1.1 21:33:21 10° NW 21:35:11 17° NNW 21:35:11 17° NNW visible
18 Sep -1.3 20:45:36 10° NW 20:47:58 18° N 20:49:31 14° NNE visible
19 Sep -1.5 19:57:43 10° WNW 20:00:16 20° N 20:02:48 10° NE visible
19 Sep -0.9 21:35:28 10° NW 21:36:44 16° NNW 21:36:44 16° NNW visible
